When you browse on this site, cookies collect data to enhance your experience and personalize the content and advertising you see.
Visit our Privacy Policy to learn more. By continuing to use the site, you agree to this use of cookies and data.
  • In Latvia
  • List of Countries
  • For 7 days
  • Water Temperature
  • Weather Map
  • Weather Widgets
  • user-avatar
    Login

    Hourly Weather Shillong

    Today, 28 February, Friday

    Time Temperature Precipitation Wind Pressure Humidity
    00:00 +9°C° 0 mm 1 mps 632 mmHg 89%
    01:00 +9°C° 0 mm 1 mps 631 mmHg 89%
    02:00 +9°C° 0 mm 1 mps 631 mmHg 89%
    03:00 +8°C° 0 mm 1 mps 630 mmHg 88%
    04:00 +8°C° 0 mm 1 mps 630 mmHg 88%
    05:00 +8°C° 0 mm 1 mps 630 mmHg 88%
    06:00 +8°C° 0 mm 1 mps 631 mmHg 89%
    07:00 +10°C° 0 mm 1 mps 632 mmHg 80%
    08:00 +12°C° 0 mm 1 mps 633 mmHg 72%
    09:00 +15°C° 0 mm 1 mps 634 mmHg 63%
    10:00 +16°C° 0 mm 1 mps 635 mmHg 57%
    11:00 +18°C° 0 mm 1 mps 635 mmHg 51%
    12:00 +20°C° 0 mm 1 mps 635 mmHg 45%
    13:00 +20°C° 0 mm 1 mps 634 mmHg 46%
    14:00 +20°C° 0 mm 1 mps 634 mmHg 47%
    15:00 +20°C° 0 mm 1 mps 633 mmHg 47%
    16:00 +18°C° 0 mm 1 mps 632 mmHg 56%
    17:00 +15°C° 0 mm 1 mps 632 mmHg 65%
    18:00 +12°C° 0 mm 0 mps 631 mmHg 74%
    19:00 +12°C° 0 mm 0 mps 631 mmHg 77%
    20:00 +12°C° 0 mm 1 mps 631 mmHg 80%
    21:00 +11°C° 0 mm 1 mps 632 mmHg 83%
    22:00 +11°C° 0 mm 1 mps 632 mmHg 82%
    23:00 +11°C° 0 mm 1 mps 632 mmHg 82%

    Tomorrow, 29 February, Saturday

    Time Temperature Precipitation Wind Pressure Humidity
    00:00 +11°C° 0 mm 1 mps 632 mmHg 82%
    01:00 +10°C° 0 mm 1 mps 631 mmHg 82%
    02:00 +10°C° 0 mm 1 mps 631 mmHg 82%
    03:00 +9°C° 0 mm 0 mps 630 mmHg 82%
    04:00 +9°C° 0 mm 0 mps 630 mmHg 81%
    05:00 +9°C° 0 mm 0 mps 630 mmHg 80%
    06:00 +9°C° 0 mm 0 mps 630 mmHg 80%
    07:00 +11°C° 0 mm 0 mps 632 mmHg 71%
    08:00 +14°C° 0 mm 0 mps 633 mmHg 61%
    09:00 +18°C° 0 mm 1 mps 634 mmHg 52%
    10:00 +19°C° 0 mm 1 mps 634 mmHg 48%
    11:00 +21°C° 0 mm 1 mps 634 mmHg 44%
    12:00 +22°C° 0 mm 1 mps 635 mmHg 40%
    13:00 +22°C° 0 mm 1 mps 634 mmHg 42%
    14:00 +20°C° 0 mm 2 mps 633 mmHg 44%
    15:00 +20°C° 0 mm 2 mps 632 mmHg 46%
    16:00 +19°C° 0 mm 1 mps 632 mmHg 54%
    17:00 +16°C° 0 mm 1 mps 631 mmHg 63%
    18:00 +13°C° 0 mm 0 mps 630 mmHg 71%
    19:00 +13°C° 0 mm 0 mps 631 mmHg 74%
    20:00 +13°C° 0 mm 1 mps 631 mmHg 76%
    21:00 +13°C° 0 mm 1 mps 632 mmHg 79%
    22:00 +12°C° 0 mm 1 mps 632 mmHg 79%
    23:00 +12°C° 0 mm 1 mps 632 mmHg 78%

    Day after tomorrow, 1 March, Sunday

    Time Temperature Precipitation Wind Pressure Humidity
    00:00 +12°C° 0 mm 1 mps 632 mmHg 78%
    01:00 +12°C° 0 mm 1 mps 631 mmHg 77%
    02:00 +11°C° 0 mm 1 mps 631 mmHg 76%
    03:00 +11°C° 0 mm 1 mps 630 mmHg 75%
    04:00 +11°C° 0 mm 1 mps 630 mmHg 74%
    05:00 +11°C° 0 mm 1 mps 630 mmHg 72%
    06:00 +10°C° 0 mm 1 mps 630 mmHg 71%
    07:00 +13°C° 0 mm 1 mps 632 mmHg 63%
    08:00 +15°C° 0 mm 1 mps 633 mmHg 55%
    09:00 +19°C° 0 mm 1 mps 635 mmHg 47%
    10:00 +20°C° 0 mm 1 mps 635 mmHg 45%
    11:00 +21°C° 0 mm 1 mps 635 mmHg 42%
    12:00 +21°C° 0 mm 2 mps 635 mmHg 39%
    13:00 +21°C° 0.1 mm 2 mps 634 mmHg 42%
    14:00 +20°C° 0.1 mm 2 mps 633 mmHg 46%
    15:00 +21°C° 0.1 mm 1 mps 632 mmHg 49%
    16:00 +19°C° 0.1 mm 1 mps 631 mmHg 57%
    17:00 +16°C° 0.1 mm 1 mps 631 mmHg 64%
    18:00 +13°C° 0.1 mm 0 mps 630 mmHg 72%
    19:00 +14°C° 0.1 mm 1 mps 630 mmHg 74%
    20:00 +13°C° 0.1 mm 1 mps 631 mmHg 76%
    21:00 +13°C° 0.1 mm 1 mps 631 mmHg 78%
    22:00 +12°C° 0.1 mm 1 mps 631 mmHg 78%
    23:00 +12°C° 0.1 mm 1 mps 631 mmHg 77%

    2 March, Monday

    Time Temperature Precipitation Wind Pressure Humidity
    00:00 +12°C° 0.1 mm 1 mps 631 mmHg 77%
    01:00 +12°C° 0 mm 1 mps 630 mmHg 75%
    02:00 +11°C° 0 mm 1 mps 630 mmHg 74%
    03:00 +11°C° 0 mm 1 mps 630 mmHg 72%
    04:00 +11°C° 0 mm 1 mps 630 mmHg 71%
    05:00 +11°C° 0 mm 1 mps 630 mmHg 70%
    06:00 +11°C° 0 mm 1 mps 630 mmHg 69%
    07:00 +13°C° 0 mm 1 mps 631 mmHg 62%
    08:00 +16°C° 0 mm 1 mps 633 mmHg 55%
    09:00 +19°C° 0 mm 1 mps 634 mmHg 49%
    10:00 +19°C° 0 mm 2 mps 634 mmHg 46%
    11:00 +20°C° 0 mm 2 mps 634 mmHg 43%
    12:00 +20°C° 0 mm 2 mps 634 mmHg 41%
    13:00 +20°C° 0.1 mm 2 mps 633 mmHg 44%
    14:00 +19°C° 0.1 mm 2 mps 632 mmHg 47%
    15:00 +19°C° 0.1 mm 2 mps 632 mmHg 51%
    16:00 +18°C° 0.2 mm 1 mps 631 mmHg 59%
    17:00 +15°C° 0.2 mm 1 mps 630 mmHg 67%
    18:00 +13°C° 0.2 mm 1 mps 630 mmHg 75%
    19:00 +13°C° 0 mm 1 mps 630 mmHg 75%
    20:00 +13°C° 0 mm 1 mps 630 mmHg 75%
    21:00 +12°C° 0 mm 1 mps 631 mmHg 75%
    22:00 +12°C° 0 mm 1 mps 630 mmHg 74%
    23:00 +12°C° 0 mm 1 mps 630 mmHg 73%

    3 March, Tuesday

    Time Temperature Precipitation Wind Pressure Humidity
    00:00 +12°C° 0 mm 1 mps 630 mmHg 71%
    01:00 +11°C° 0.1 mm 1 mps 630 mmHg 73%
    02:00 +11°C° 0.1 mm 1 mps 630 mmHg 75%
    03:00 +10°C° 0.1 mm 2 mps 629 mmHg 77%
    04:00 +10°C° 0.1 mm 2 mps 630 mmHg 77%
    05:00 +10°C° 0.1 mm 2 mps 630 mmHg 78%
    06:00 +10°C° 0.1 mm 2 mps 630 mmHg 78%
    07:00 +13°C° 0 mm 2 mps 631 mmHg 70%
    08:00 +15°C° 0 mm 2 mps 633 mmHg 61%
    09:00 +17°C° 0 mm 3 mps 634 mmHg 53%
    10:00 +18°C° 0.2 mm 2 mps 634 mmHg 53%
    11:00 +18°C° 0.2 mm 2 mps 633 mmHg 54%
    12:00 +18°C° 0.2 mm 2 mps 633 mmHg 54%
    13:00 +19°C° 0.6 mm 2 mps 633 mmHg 52%
    14:00 +19°C° 0.6 mm 3 mps 632 mmHg 50%
    15:00 +19°C° 0.6 mm 3 mps 631 mmHg 47%
    16:00 +17°C° 0.4 mm 2 mps 631 mmHg 57%
    17:00 +15°C° 0.4 mm 2 mps 630 mmHg 67%
    18:00 +13°C° 0.4 mm 1 mps 629 mmHg 76%
    19:00 +13°C° 0.2 mm 1 mps 629 mmHg 77%
    20:00 +12°C° 0.2 mm 1 mps 630 mmHg 78%
    21:00 +12°C° 0.2 mm 1 mps 630 mmHg 79%
    22:00 +11°C° 0.6 mm 1 mps 630 mmHg 81%
    23:00 +11°C° 0.6 mm 1 mps 630 mmHg 83%

    4 March, Wednesday

    Time Temperature Precipitation Wind Pressure Humidity
    00:00 +11°C° 0.6 mm 1 mps 630 mmHg 85%
    01:00 +11°C° 0.3 mm 1 mps 630 mmHg 85%
    02:00 +11°C° 0.3 mm 1 mps 629 mmHg 84%
    03:00 +11°C° 0.3 mm 1 mps 629 mmHg 83%
    04:00 +11°C° 0 mm 1 mps 629 mmHg 83%
    05:00 +10°C° 0 mm 1 mps 629 mmHg 83%
    06:00 +10°C° 0 mm 1 mps 630 mmHg 83%
    07:00 +12°C° 0 mm 1 mps 631 mmHg 77%
    08:00 +14°C° 0 mm 1 mps 632 mmHg 70%
    09:00 +17°C° 0 mm 2 mps 633 mmHg 64%
    10:00 +17°C° 0.2 mm 2 mps 634 mmHg 59%
    11:00 +18°C° 0.2 mm 2 mps 634 mmHg 55%
    12:00 +19°C° 0.2 mm 3 mps 634 mmHg 51%
    13:00 +19°C° 0.6 mm 3 mps 633 mmHg 51%
    14:00 +19°C° 0.6 mm 2 mps 632 mmHg 51%
    15:00 +19°C° 0.6 mm 2 mps 631 mmHg 51%
    16:00 +17°C° 0.2 mm 2 mps 631 mmHg 61%
    17:00 +15°C° 0.2 mm 1 mps 630 mmHg 70%
    18:00 +12°C° 0.2 mm 0 mps 629 mmHg 79%
    19:00 +13°C° 0.3 mm 1 mps 630 mmHg 82%
    20:00 +12°C° 0.3 mm 1 mps 630 mmHg 84%
    21:00 +12°C° 0.3 mm 1 mps 631 mmHg 87%
    22:00 +12°C° 0.1 mm 1 mps 631 mmHg 85%
    23:00 +12°C° 0.1 mm 1 mps 631 mmHg 84%
    Show more